CZ-6A DEB, 61176

Orbit data source: Space-Track

CZ-6A DEB, 61176 is space debris in LEO originally from a launch on Tue, 06 Aug 2024 UTC launched from the Taiyaun Space Center, China (TSC). Debris objects in space refer to the collection of defunct objects orbiting the Earth. Examples of debris include non-operational satellites, rocket bodies, and fragments generated from explosions, collisions, or faulty payload assembly.

Loading next visibility...
Identifier
61176, 2024-140RW
Orbit
LEO
Country
Flag of CNCN / PRC
Related business
Manufacturer
SAST
Mission
Spacecraft
Bus & Motor
Unknown
Mass
Unknown
Launch date (UTC)
2024-08-06 (2 years ago)
Launch vehicle
Unknown
Launch site
Taiyaun Space Center, China (TSC)
Object type
Payload
Rocket body
Debris
Shape & HBR
Unknown shape, 0.2 m
Radar Cross Section
Medium (>0.1 m² and <1 m²)

Expand to show TLE details & history
Last TLE update: 13 hours ago

TLE from 13 hours ago
0 CZ-6A DEB
1 61176U 24140RW  26171.31941950  .00000812  00000-0  12387-3 0  9996
2 61176  89.0850 276.1087 0185629 253.3932 104.6827 14.61916795 97274
Epoch: 2026-06-20T07:39Z
TLE epoch observation values (Epoch: 2026-06-20T07:39:57.844Z)
Latitude
-0.00002°
Longitude
-107.41806°
Altitude
725.616 km
Speed
7.474 km/s
True Right ascension
18h 24m 26s
True Declination
0° 00' 00"
Sunlit
Object was in full shadow at epoch
Visualization orbit readout
Latitude
Unknown
Longitude
Unknown
Altitude
Unknown
Speed
Unknown
Apparent Right ascension
Unknown
Apparent Declination
Unknown
Sunlit
N/A
Visualization observer readout
Local Sidereal Time
07:17:57
Azimuth
Unknown
Elevation
Unknown
Doppler factor
Unknown
Orbital elements
Apogee altitude
814.972 km
Perigee altitude
552.789 km
Semi-major axis
7,062.018 km
Eccentricity
0.01856
Inclination
89.085°
RAAN
276.1087°
Arg. of periapsis
253.3932°
True anomaly
106.72792°
Mean anomaly
104.6827°
Eccentric anomaly
105.70656°
Mean motion
3.65721 °/min
Orbital period
98.44 mins
BSTAR
0.00012387
Loading maneuver chart data...
Computing Atmospheric mass density...
Loading historical data...
Loading historical data...
Loading historical data...
Loading historical data...
Loading historical data...
Loading historical data...
Loading historical data...

Documentation

Showing up to 5 results
|